Location: Berg
(48.4333°N, 13.9167°E)
Time: 02:50:45
(UTC+00:00)

Cosmos 1536 Rocket - Pass Details

Date: 18 September 2020
Orbit: 606 x 632 km, 82.5° (Epoch: 24 October)

Event Time Altitude Azimuth Distance (km) Brightness Sun altitude
Rises 18:31:34 0° 353° (N) 2,914 7.4 -14.1°
Reaches altitude 10° 18:33:51 10° 358° (N) 2,007 6.4 -14.5°
Maximum altitude 18:38:14 56° 77° (ENE) 752 3.7 -15.1°
Enters shadow 18:41:15 19° 151° (SSE) 1,490 5.1 -15.6°
